TimeAST,TemperatureF,Dew PointF,Humidity,Sea Level PressureIn,VisibilityMPH,Wind Direction,Wind SpeedMPH,Gust SpeedMPH,PrecipitationIn,Events,Conditions,WindDirDegrees,DateUTC
12:56 AM,78.1,71.1,79,30.04,10.0,East,3.5,-,N/A,,Scattered Clouds,100,2012-12-09 04:56:00
1:56 AM,78.1,70.0,76,30.03,10.0,ESE,4.6,-,N/A,,Scattered Clouds,120,2012-12-09 05:56:00
2:56 AM,78.1,70.0,76,30.01,10.0,ESE,3.5,-,N/A,,Scattered Clouds,110,2012-12-09 06:56:00
3:56 AM,77.0,70.0,79,30.01,10.0,East,5.8,-,N/A,,Scattered Clouds,100,2012-12-09 07:56:00
4:56 AM,77.0,70.0,79,30.02,10.0,SE,3.5,-,N/A,,Scattered Clouds,130,2012-12-09 08:56:00
5:56 AM,75.9,70.0,82,30.03,10.0,SE,3.5,-,N/A,,Scattered Clouds,130,2012-12-09 09:56:00
6:56 AM,75.9,70.0,82,30.04,10.0,Calm,Calm,-,N/A,,Scattered Clouds,0,2012-12-09 10:56:00
7:56 AM,79.0,70.0,74,30.06,10.0,Calm,Calm,-,N/A,,Partly Cloudy,0,2012-12-09 11:56:00
8:56 AM,81.0,71.1,72,30.08,10.0,ESE,4.6,-,N/A,,Scattered Clouds,110,2012-12-09 12:56:00
9:56 AM,82.0,70.0,67,30.09,10.0,ENE,17.3,-,N/A,,Mostly Cloudy,70,2012-12-09 13:56:00
10:56 AM,84.9,69.1,59,30.09,10.0,East,10.4,-,N/A,,Partly Cloudy,90,2012-12-09 14:56:00
11:56 AM,86.0,70.0,59,30.07,10.0,ENE,16.1,-,N/A,,Partly Cloudy,60,2012-12-09 15:56:00
12:56 PM,84.9,71.1,63,30.04,10.0,ENE,15.0,-,N/A,,Scattered Clouds,60,2012-12-09 16:56:00
1:56 PM,84.9,71.1,63,30.02,10.0,ENE,15.0,18.4,N/A,,Scattered Clouds,70,2012-12-09 17:56:00
2:56 PM,84.9,72.0,65,30.00,10.0,ENE,15.0,-,N/A,,Scattered Clouds,60,2012-12-09 18:56:00
3:56 PM,84.0,72.0,67,29.99,10.0,ENE,11.5,-,N/A,,Scattered Clouds,70,2012-12-09 19:56:00
4:56 PM,82.0,71.1,69,30.00,10.0,East,12.7,-,N/A,,Scattered Clouds,80,2012-12-09 20:56:00
5:56 PM,80.1,72.0,76,30.01,10.0,East,9.2,-,N/A,,Scattered Clouds,90,2012-12-09 21:56:00
6:56 PM,79.0,72.0,79,30.03,10.0,East,8.1,-,N/A,,Scattered Clouds,100,2012-12-09 22:56:00
7:56 PM,80.1,72.0,76,30.04,10.0,East,9.2,-,N/A,,Scattered Clouds,100,2012-12-09 23:56:00
8:56 PM,79.0,73.0,82,30.05,10.0,Calm,Calm,-,0.00,,Scattered Clouds,0,2012-12-10 00:56:00
9:56 PM,78.1,73.0,84,30.06,10.0,East,13.8,-,0.00,Rain,Light Rain,100,2012-12-10 01:56:00
10:56 PM,78.1,72.0,81,30.05,10.0,SE,4.6,-,0.01,Rain,Light Rain,130,2012-12-10 02:56:00
11:56 PM,77.0,72.0,84,30.04,10.0,ESE,4.6,-,0.00,,Partly Cloudy,110,2012-12-10 03:56:00